Location: Kitt Peak
(31.9633°N, 111.6000°W)
Time: 00:42:27
(UTC-07:00)

Amateur Radio Satellites - All Passes

Search period start: 28 February 2017 00:12
Search period end: 01 March 2017 00:12
Location: Kitt Peak, 31.9633°N, 111.6000°W

Satellite Date Start Highest point End Downlink Frequencies (MHz)
Time Altitude Azimuth
50 SAT 28 Feb 00:14:05 00:17:34 84° 256° (WSW) 00:21:04 437.505
VELOX 1 28 Feb 00:16:54 00:21:10 55° 259° (W) 00:25:29 145.980
DUCHIFAT 1 28 Feb 00:35:59 00:40:09 52° 285° (WNW) 00:44:16 145.980
EO-79 28 Feb 00:50:40 00:54:23 29° 288° (WNW) 00:58:03 145.935-145.965
NANOSAT C BR1 28 Feb 01:06:10 01:09:23 21° 290° (WNW) 01:12:36 145.865
PCSat 28 Feb 01:07:13 01:12:30 50° 62° (ENE) 01:17:44 145.827
POLYITAN 1 28 Feb 01:09:51 01:12:44 18° 291° (WNW) 01:15:36 437.675
SRMSAT 28 Feb 01:11:31 01:16:16 25° 184° (S) 01:21:02 437.500
QB50P2 28 Feb 01:13:18 01:15:47 15° 291° (WNW) 01:18:16 145.880/145.840
FO-29 28 Feb 01:16:24 01:18:07 11° 304° (WNW) 01:19:49 435.910
NO-84 28 Feb 01:17:18 01:20:35 21° 237° (WSW) 01:23:56 435.350 FM
ITUPSAT 1 28 Feb 01:19:53 01:21:44 12° 65° (ENE) 01:23:37 437.325
BUGSAT 1 28 Feb 01:21:02 01:25:08 47° 285° (WNW) 01:29:12 437.445
BEESAT 28 Feb 01:23:50 01:26:15 14° 66° (ENE) 01:28:40 436.000
Gurwin Techsat 1B 28 Feb 01:27:24 01:31:32 23° 96° (E) 01:35:37 435.225
DX 1 28 Feb 01:36:45 01:39:17 15° 265° (W) 01:41:51 434.975-435.025
UKube-1 28 Feb 01:42:16 01:45:16 19° 264° (W) 01:48:17 .
Oscar 19 28 Feb 01:57:04 02:02:13 89° 105° (ESE) 02:07:21 437.125/150
RS-15 28 Feb 02:02:44 02:14:47 57° 56° (NE) 02:26:12 29.354- 29.394
AO-85 28 Feb 02:10:22 02:10:49 10° 108° (ESE) 02:11:16 145.980
ITAMSAT 1 28 Feb 02:38:46 02:42:16 18° 95° (E) 02:45:43 435.822/435.867
AO-7 28 Feb 02:39:10 02:44:33 19° 95° (E) 02:49:55 .
PCSat 28 Feb 02:52:05 02:55:24 17° 256° (WSW) 02:58:43 145.827
MOZHAYETS 4 28 Feb 02:52:56 02:57:20 44° 74° (ENE) 03:01:44
ITUPSAT 1 28 Feb 02:54:17 02:59:01 58° 259° (W) 03:03:45 437.325
BEESAT 28 Feb 02:58:56 03:03:33 49° 260° (W) 03:08:12 436.000
SRMSAT 28 Feb 03:01:07 03:04:52 17° 194° (SSW) 03:08:37 437.500
KKS-1 28 Feb 03:04:19 03:06:16 13° 67° (ENE) 03:08:14 437.445
Gurwin Techsat 1B 28 Feb 03:06:40 03:11:28 35° 289° (WNW) 03:16:14 435.225
STARS 28 Feb 03:31:08 03:31:44 10° 66° (ENE) 03:32:21 437.465
AO-85 28 Feb 03:46:12 03:50:50 61° 299° (WNW) 03:55:07 145.980
CUBESAT XI-V 28 Feb 04:00:47 04:05:00 35° 73° (ENE) 04:09:13 437.345
RS-15 28 Feb 04:16:04 04:26:38 37° 255° (WSW) 04:36:48 29.354- 29.394
ITAMSAT 1 28 Feb 04:16:54 04:21:49 42° 288° (WNW) 04:26:43 435.822/435.867
M-CUBED/EXP-1 PRIME 28 Feb 04:29:00 04:31:45 25° 69° (ENE) 04:34:30 437.505
AO-7 28 Feb 04:29:34 04:37:51 74° 289° (WNW) 04:46:04 .
MOZHAYETS 4 28 Feb 04:32:16 04:34:37 14° 267° (W) 04:36:59
KKS-1 28 Feb 04:38:09 04:42:22 45° 260° (W) 04:46:38 437.445
BEESAT 3 28 Feb 04:42:29 04:45:41 25° 111° (ESE) 04:48:54 437.485
STARS 28 Feb 05:03:15 05:07:32 56° 260° (W) 05:11:50 437.465
Tancredo 1 28 Feb 05:10:59 05:11:25 10° 125° (SE) 05:11:49 437.200
BEESAT 2 28 Feb 05:27:24 05:30:54 32° 112° (ESE) 05:34:27 435.950
LilacSat-2 28 Feb 05:34:11 05:35:47 12° 94° (E) 05:37:23 437.200
CUBESAT XI-V 28 Feb 05:39:20 05:42:24 17° 265° (W) 05:45:28 437.345
STRAND 1 28 Feb 05:44:56 05:46:24 11° 64° (ENE) 05:47:53 437.568
CUTE-I 28 Feb 05:48:15 05:52:18 21° 96° (E) 05:56:18 437.470
M-CUBED/EXP-1 PRIME 28 Feb 06:05:43 06:06:15 10° 260° (W) 06:06:50 437.505
DOVE 4 28 Feb 06:14:15 06:19:04 55° 100° (E) 06:24:06 437.250
KAITUO 1B 28 Feb 06:15:34 06:19:00 34° 98° (E) 06:22:24 145.475/437.950
BEESAT 3 28 Feb 06:20:18 06:23:13 20° 306° (NW) 06:26:09 437.485
XW-2F 28 Feb 06:25:28 06:29:14 60° 101° (E) 06:32:56 145.980 - 146.000
AO-7 28 Feb 06:25:57 06:29:11 13° 307° (NW) 06:32:26 .
ISS 28 Feb 06:26:28 06:29:44 88° 302° (WNW) 06:33:03 437.550
XW-2D 28 Feb 06:32:05 06:35:54 82° 101° (ESE) 06:39:40 145.860 - 145.880
XW-2B 28 Feb 06:37:13 06:41:02 88° 276° (W) 06:44:47 145.730 - 145.750
SO-50 28 Feb 06:39:42 06:43:59 43° 58° (ENE) 06:48:14 436.795
Tancredo 1 28 Feb 06:44:09 06:47:18 48° 318° (NW) 06:50:27 437.200
XW-2C 28 Feb 06:46:02 06:49:49 64° 283° (WNW) 06:53:33 145.795 - 145.815
NUDT-PHONESAT 28 Feb 06:46:17 06:50:02 82° 283° (WNW) 06:53:44 437.300
BEESAT 2 28 Feb 07:06:11 07:08:44 16° 307° (NW) 07:11:18 435.950
LilacSat-2 28 Feb 07:06:42 07:10:07 31° 286° (WNW) 07:13:29 437.200
CUTE 1.7 + AOD 2 28 Feb 07:07:15 07:10:05 17° 95° (E) 07:12:54 437.475
XW-2A 28 Feb 07:08:35 07:11:29 25° 97° (E) 07:14:22 145.665 - 145.685
O/OREOS (USA 219) 28 Feb 07:18:44 07:20:23 12° 59° (ENE) 07:22:02 437.305
STRAND 1 28 Feb 07:19:48 07:24:54 71° 258° (WSW) 07:30:03 437.568
CUTE-I 28 Feb 07:27:26 07:32:22 38° 289° (WNW) 07:37:16 437.470
HO-68 28 Feb 07:28:58 07:35:39 42° 100° (E) 07:42:19 435.675
AAUSAT CUBESAT 2 28 Feb 07:39:01 07:40:27 12° 93° (E) 07:41:52 437.432
KAITUO 1B 28 Feb 07:51:25 07:52:39 11° 291° (WNW) 07:53:52 145.475/437.950
DOVE 4 28 Feb 07:53:54 07:56:18 14° 292° (WNW) 07:58:46 437.250
SEEDS 28 Feb 07:57:16 08:01:17 47° 99° (E) 08:05:17 437.485
CUBEBUG 2 28 Feb 07:58:31 08:02:48 33° 97° (E) 08:07:00 437.445
ISS 28 Feb 08:06:33 08:06:38 10° 331° (NNW) 08:06:42 437.550
SO-50 28 Feb 08:21:38 08:24:01 14° 252° (WSW) 08:26:23 436.795
UWE-3 28 Feb 08:28:48 08:33:14 45° 99° (E) 08:37:34 435.000/436.395/437.385
PRISM 28 Feb 08:33:51 08:37:08 24° 71° (ENE) 08:40:25 437.425
CUTE 1.7 + AOD 2 28 Feb 08:42:17 08:45:52 28° 288° (WNW) 08:49:26 437.475
XW-2A 28 Feb 08:42:25 08:43:58 13° 290° (WNW) 08:45:32 145.665 - 145.685
ZACube-1 28 Feb 08:42:28 08:46:38 35° 98° (E) 08:50:40 437.345
O/OREOS (USA 219) 28 Feb 08:55:36 09:00:06 55° 254° (WSW) 09:04:35 437.305
AAUSAT CUBESAT 2 28 Feb 09:12:12 09:16:02 39° 286° (WNW) 09:19:51 437.432
HO-68 28 Feb 09:17:02 09:23:06 31° 294° (WNW) 09:29:09 435.675
AO-73 28 Feb 09:28:42 09:33:10 68° 284° (WNW) 09:37:30 145.935
Oscar 11 28 Feb 09:31:07 09:35:25 73° 284° (WNW) 09:39:41 .
FO-29 28 Feb 09:32:40 09:38:55 33° 66° (ENE) 09:45:35 435.910
SEEDS 28 Feb 09:35:34 09:36:29 11° 293° (WNW) 09:37:25 437.485
CUBEBUG 2 28 Feb 09:35:46 09:39:06 19° 291° (WNW) 09:42:24 437.445
TIGRISAT 28 Feb 09:43:16 09:47:41 61° 75° (ENE) 09:52:14 435.000
UNISAT 6 28 Feb 09:43:59 09:48:26 68° 76° (ENE) 09:53:01 437.425
YUBILEINY 28 Feb 10:03:00 10:11:37 62° 91° (E) 10:20:14 435.215
UWE-3 28 Feb 10:06:49 10:09:13 14° 293° (WNW) 10:11:34 435.000/436.395/437.385
PRISM 28 Feb 10:09:23 10:12:20 19° 264° (W) 10:15:15 437.425
DELFI C3 28 Feb 10:14:40 10:18:35 71° 282° (WNW) 10:22:28 145.870
ZACube-1 28 Feb 10:19:44 10:22:32 16° 292° (WNW) 10:25:18 437.345
POLYITAN 1 28 Feb 10:23:00 10:24:48 12° 67° (ENE) 10:26:36 437.675
QB50P2 28 Feb 10:25:32 10:27:53 15° 68° (ENE) 10:30:14 145.880/145.840
FO-29 28 Feb 11:16:59 11:23:35 43° 263° (W) 11:30:49 435.910
DUCHIFAT 1 28 Feb 11:22:29 11:26:34 55° 76° (ENE) 11:30:42 145.980
AIST 2D 28 Feb 11:22:50 11:26:19 56° 260° (W) 11:29:50 435.315
LO-87 28 Feb 11:29:37 11:33:13 73° 283° (WNW) 11:36:49 145.935 - 145.965
EO-79 28 Feb 11:37:16 11:41:29 76° 259° (W) 11:45:44 145.935-145.965
NANOSAT C BR1 28 Feb 11:52:09 11:56:15 53° 260° (W) 12:00:24 145.865
SPROUT 28 Feb 11:54:25 11:57:30 19° 95° (E) 12:00:33 437.525
POLYITAN 1 28 Feb 11:56:08 12:00:09 42° 261° (W) 12:04:13 437.675
QB50P2 28 Feb 11:59:25 12:03:19 35° 262° (W) 12:07:14 145.880/145.840
ESTCUBE 1 28 Feb 12:01:17 12:05:46 77° 282° (WNW) 12:10:13 437.505/2401.250
YUBILEINY 28 Feb 12:02:12 12:08:52 24° 288° (WNW) 12:15:34 435.215
BUGSAT 1 28 Feb 12:05:28 12:09:26 57° 75° (ENE) 12:13:28 437.445
VELOX 1 28 Feb 12:11:40 12:15:49 38° 99° (E) 12:19:56 145.980
AO-85 28 Feb 12:22:32 12:25:47 24° 56° (ENE) 12:29:05 145.980
Gurwin Techsat 1B 28 Feb 12:43:56 12:48:02 23° 68° (ENE) 12:52:08 435.225
ISS 28 Feb 12:59:21 13:00:51 12° 32° (NNE) 13:02:21 437.550
Oscar 19 28 Feb 13:08:53 13:14:01 79° 77° (ENE) 13:19:10 437.125/150
Tancredo 1 28 Feb 13:15:30 13:17:44 17° 35° (NE) 13:19:57 437.200
50 SAT 28 Feb 13:16:41 13:19:52 35° 286° (WNW) 13:23:03 437.505
DX 1 28 Feb 13:27:34 13:31:52 61° 285° (WNW) 13:36:11 434.975-435.025
SPROUT 28 Feb 13:29:42 13:33:21 27° 288° (WNW) 13:36:59 437.525
UKube-1 28 Feb 13:32:28 13:36:47 78° 284° (WNW) 13:41:05 .
AO-7 28 Feb 13:33:54 13:39:12 19° 57° (ENE) 13:44:28 .
VELOX 1 28 Feb 13:49:23 13:51:53 15° 292° (WNW) 13:54:23 145.980
ITAMSAT 1 28 Feb 13:52:23 13:55:46 18° 66° (ENE) 13:59:11 435.822/435.867
AO-85 28 Feb 14:03:06 14:05:59 20° 249° (WSW) 14:08:56 145.980
PCSat 28 Feb 14:04:07 14:06:14 12° 103° (ESE) 14:08:21 145.827
Gurwin Techsat 1B 28 Feb 14:22:54 14:27:43 35° 262° (W) 14:32:33 435.225
ISS 28 Feb 14:34:21 14:37:35 62° 227° (SW) 14:40:49 437.550
BEESAT 3 28 Feb 14:40:23 14:44:17 47° 60° (ENE) 14:48:07 437.485
Tancredo 1 28 Feb 14:51:06 14:54:04 34° 229° (SW) 14:56:59 437.200
MOZHAYETS 4 28 Feb 14:54:12 14:56:48 15° 94° (E) 14:59:23
NO-84 28 Feb 14:54:37 14:57:11 26° 124° (SE) 14:59:54 435.350 FM
ITUPSAT 1 28 Feb 14:59:36 15:04:17 53° 101° (E) 15:08:55 437.325
BEESAT 28 Feb 15:03:41 15:08:25 61° 101° (E) 15:13:07 436.000
AO-7 28 Feb 15:22:33 15:30:56 83° 253° (WSW) 15:39:20 .
BEESAT 2 28 Feb 15:26:36 15:30:38 63° 61° (ENE) 15:34:36 435.950
ITAMSAT 1 28 Feb 15:29:52 15:34:49 45° 260° (W) 15:39:49 435.822/435.867
PCSat 28 Feb 15:43:37 15:48:58 65° 296° (WNW) 15:54:22 145.827
CUBESAT XI-V 28 Feb 16:03:55 16:05:49 12° 93° (E) 16:07:43 437.345
RS-15 28 Feb 16:18:26 16:29:47 58° 110° (ESE) 16:41:37 29.354- 29.394
BEESAT 3 28 Feb 16:21:06 16:21:23 10° 253° (WSW) 16:21:42 437.485
MOZHAYETS 4 28 Feb 16:29:47 16:34:03 39° 287° (WNW) 16:38:17
NO-84 28 Feb 16:32:46 16:34:50 16° 322° (NW) 16:37:01 435.350 FM
KKS-1 28 Feb 16:33:37 16:37:56 47° 100° (E) 16:42:16 437.445
ITUPSAT 1 28 Feb 16:39:27 16:41:35 13° 294° (WNW) 16:43:43 437.325
BEESAT 28 Feb 16:44:10 16:45:36 11° 295° (WNW) 16:47:02 436.000
STARS 28 Feb 16:57:24 17:01:31 37° 99° (E) 17:05:36 437.465
XW-2F 28 Feb 17:02:58 17:05:08 15° 70° (ENE) 17:07:19 145.980 - 146.000
CUTE-I 28 Feb 17:05:31 17:09:33 22° 68° (ENE) 17:13:36 437.470
XW-2D 28 Feb 17:09:18 17:12:03 19° 71° (ENE) 17:14:49 145.860 - 145.880
XW-2B 28 Feb 17:14:14 17:17:11 21° 72° (ENE) 17:20:07 145.730 - 145.750
DOVE 4 28 Feb 17:16:01 17:19:30 27° 72° (ENE) 17:23:01 437.250
NUDT-PHONESAT 28 Feb 17:21:31 17:24:22 21° 72° (ENE) 17:27:13 437.300
AO-7 28 Feb 17:21:41 17:24:32 12° 268° (W) 17:27:25 .
XW-2C 28 Feb 17:22:39 17:25:56 27° 73° (ENE) 17:29:14 145.795 - 145.815
CUBESAT XI-V 28 Feb 17:38:59 17:43:22 47° 286° (WNW) 17:47:46 437.345
LilacSat-2 28 Feb 17:42:59 17:46:46 56° 76° (ENE) 17:50:35 437.200
M-CUBED/EXP-1 PRIME 28 Feb 17:44:29 17:48:26 53° 105° (ESE) 17:52:39 437.505
HO-68 28 Feb 17:54:14 17:58:58 19° 62° (ENE) 18:03:40 435.675
KKS-1 28 Feb 18:12:06 18:14:02 13° 293° (WNW) 18:15:58 437.445
KAITUO 1B 28 Feb 18:24:06 18:27:47 48° 260° (W) 18:31:30 145.475/437.950
JUGNU 28 Feb 18:28:21 18:31:11 14° 164° (SSE) 18:34:00 437.505
RS-15 28 Feb 18:31:44 18:42:38 40° 310° (NW) 18:54:00 29.354- 29.394
STARS 28 Feb 18:34:51 18:37:30 16° 292° (WNW) 18:40:09 437.465
XW-2F 28 Feb 18:35:40 18:39:00 28° 263° (W) 18:42:21 145.980 - 146.000
XW-2D 28 Feb 18:43:05 18:46:04 21° 264° (W) 18:49:05 145.860 - 145.880
CUTE-I 28 Feb 18:44:26 18:49:18 37° 262° (W) 18:54:13 437.470
SEEDS 28 Feb 18:44:57 18:47:49 18° 70° (ENE) 18:50:42 437.485
XW-2B 28 Feb 18:48:26 18:51:14 19° 264° (W) 18:54:04 145.730 - 145.750
CUBEBUG 2 28 Feb 18:52:50 18:55:30 16° 68° (ENE) 18:58:13 437.445
DOVE 4 28 Feb 18:54:29 18:57:12 17° 266° (W) 18:59:55 437.250
NUDT-PHONESAT 28 Feb 18:55:28 18:58:09 19° 264° (W) 19:00:52 437.300
XW-2C 28 Feb 18:57:56 19:00:07 15° 266° (W) 19:02:19 145.795 - 145.815
XW-2A 28 Feb 19:07:05 19:10:28 86° 261° (W) 19:13:54 145.665 - 145.685
UWE-3 28 Feb 19:21:25 19:24:43 20° 70° (ENE) 19:28:04 435.000/436.395/437.385
M-CUBED/EXP-1 PRIME 28 Feb 19:21:46 19:22:31 10° 296° (WNW) 19:23:16 437.505
CUTE 1.7 + AOD 2 28 Feb 19:28:59 19:33:15 78° 259° (WSW) 19:37:32 437.475
ZACube-1 28 Feb 19:34:17 19:37:05 16° 68° (ENE) 19:39:53 437.345
STRAND 1 28 Feb 19:35:15 19:40:21 60° 101° (E) 19:45:23 437.568
HO-68 28 Feb 19:38:49 19:45:57 69° 257° (WSW) 19:53:06 435.675
AAUSAT CUBESAT 2 28 Feb 19:56:45 20:00:52 65° 76° (ENE) 20:04:59 437.432
JUGNU 28 Feb 20:15:06 20:19:33 22° 173° (S) 20:24:00 437.505
AO-73 28 Feb 20:18:42 20:22:58 49° 75° (ENE) 20:27:21 145.935
SEEDS 28 Feb 20:19:37 20:23:16 28° 263° (W) 20:26:55 437.485
YUBILEINY 28 Feb 20:20:35 20:27:07 23° 72° (ENE) 20:33:35 435.215
Oscar 11 28 Feb 20:20:43 20:24:50 44° 75° (ENE) 20:28:59 .
CUBEBUG 2 28 Feb 20:27:36 20:31:43 38° 262° (W) 20:35:59 437.445
SO-50 28 Feb 20:48:52 20:53:20 45° 114° (ESE) 20:57:47 436.795
DELFI C3 28 Feb 20:55:26 20:58:54 30° 73° (ENE) 21:02:22 145.870
RS-15 28 Feb 20:55:42 21:00:15 12° 341° (NNW) 21:04:48 29.354- 29.394
UWE-3 28 Feb 20:57:03 21:00:55 29° 264° (W) 21:04:53 435.000/436.395/437.385
ZACube-1 28 Feb 21:08:53 21:12:59 36° 263° (W) 21:17:11 437.345
STRAND 1 28 Feb 21:16:35 21:18:57 13° 295° (WNW) 21:21:17 437.568
SRMSAT 28 Feb 21:22:37 21:26:07 16° 166° (SSE) 21:29:38 437.500
O/OREOS (USA 219) 28 Feb 21:24:16 21:28:08 29° 103° (ESE) 21:32:01 437.305
TIGRISAT 28 Feb 21:40:36 21:43:58 19° 95° (E) 21:47:15 435.000
UNISAT 6 28 Feb 21:41:21 21:44:56 22° 95° (E) 21:48:26 437.425
PRISM 28 Feb 21:54:01 21:58:07 80° 104° (ESE) 22:02:12 437.425
AO-73 28 Feb 21:57:57 21:59:25 11° 268° (W) 22:00:54 145.935
Oscar 11 28 Feb 21:59:29 22:01:07 12° 267° (W) 22:02:47 .
LO-87 28 Feb 22:01:51 22:04:24 19° 72° (ENE) 22:06:58 145.935 - 145.965
JUGNU 28 Feb 22:03:23 22:07:59 24° 183° (S) 22:12:36 437.505
YUBILEINY 28 Feb 22:15:51 22:24:23 62° 269° (W) 22:32:52 435.215
SO-50 28 Feb 22:30:53 22:33:59 17° 308° (NW) 22:37:03 436.795
DELFI C3 28 Feb 22:31:35 22:33:43 14° 266° (W) 22:35:50 145.870
FO-29 28 Feb 22:32:41 22:39:31 42° 97° (E) 22:45:36 435.910
AIST 2D 28 Feb 22:54:06 22:56:04 14° 95° (E) 22:58:00 435.315
ESTCUBE 1 28 Feb 22:55:39 23:00:02 51° 75° (ENE) 23:04:24 437.505/2401.250
O/OREOS (USA 219) 28 Feb 23:04:16 23:07:30 19° 297° (WNW) 23:10:46 437.305
VELOX 1 28 Feb 23:04:58 23:08:03 19° 69° (ENE) 23:11:08 145.980
NO-84 28 Feb 23:08:54 23:12:36 32° 44° (NE) 23:16:30 435.350 FM
SRMSAT 28 Feb 23:10:00 23:14:41 24° 175° (S) 23:19:24 437.500
DUCHIFAT 1 28 Feb 23:13:02 23:15:01 13° 94° (E) 23:17:01 145.980
RS-15 28 Feb 23:15:57 23:21:16 13° 21° (NNE) 23:26:31 29.354- 29.394
TIGRISAT 28 Feb 23:16:30 23:20:37 31° 288° (WNW) 23:24:39 435.000
UNISAT 6 28 Feb 23:17:34 23:21:33 28° 289° (WNW) 23:25:28 437.425
EO-79 28 Feb 23:27:15 23:30:46 25° 97° (E) 23:34:16 145.935-145.965
LO-87 28 Feb 23:35:20 23:37:44 17° 264° (W) 23:40:08 145.935 - 145.965
NANOSAT C BR1 28 Feb 23:41:21 23:45:13 33° 98° (E) 23:49:04 145.865
POLYITAN 1 28 Feb 23:45:36 23:49:41 42° 99° (E) 23:53:44 437.675
50 SAT 28 Feb 23:45:42 23:48:52 33° 74° (ENE) 23:52:02 437.505
QB50P2 28 Feb 23:48:40 23:52:51 50° 100° (E) 23:57:00 145.880/145.840
JUGNU 28 Feb 23:52:44 23:56:23 17° 193° (SSW) 00:00:03 437.505
BUGSAT 1 28 Feb 23:53:44 23:55:38 13° 94° (E) 23:57:31 437.445
